Worcester, MA

1:58 AM EDT on September 29, 2016 (GMT -0400)
Worcester Regional

Weather History for KORH - December, 2012

Change the Weather History Date:

Saturday, December 8, 2012

  Actual Average Record
Temperature  
Mean Temperature 42 °F 32 °F  
Max Temperature 44 °F 39 °F 61 °F (1966)
Min Temperature 40 °F 25 °F -3 °F (1906)
Degree Days  
Heating Degree Days 23 33  
Month to date heating degree days 211 253  
Since 1 July heating degree days 1476 1655  
Cooling Degree Days 0 0  
Month to date cooling degree days 0 0  
Year to date cooling degree days 674 471  
Moisture  
Dew Point 40 °F    
Average Humidity 96    
Maximum Humidity 100    
Minimum Humidity 92    
Precipitation  
Precipitation 0.32 in 0.13 in 1.76 in (1974)
Month to date precipitation 0.58 1.07  
Year to date precipitation 39.35 45.32  
Snow  
Snow 0.00 in 0.40 in 2.10 in (1917)
Month to date snowfall 0.8 2.8  
Since 1 July snowfall 8.6 5.6  
Snow Depth 0.00 in    
Sea Level Pressure  
Sea Level Pressure 29.93 in    
Wind  
Wind Speed 5 mph (SSW)    
Max Wind Speed 14 mph    
Max Gust Speed 18 mph    
Visibility 2 miles    
Events Fog , Rain    
T = Trace of Precipitation, MM = Missing Value Source: NWS Daily Summary

Daily Weather History Graph

Daily Weather History Graph

Search for Another Location

Airport or City:

Trip Planner

Search our weather history database for the weather conditions in past years. The results will help you decide how hot, cold, wet, or windy it might be!

Date:

Astronomy

Dec. 08, 2012 Rise Set
Actual Time 7:04 AM EST 4:15 PM EST
Civil Twilight 6:32 AM EST 4:46 PM EST
Nautical Twilight 5:57 AM EST 5:21 PM EST
Astronomical Twilight 5:23 AM EST 5:55 PM EST
Moon 1:20 AM EST (12/8) 12:47 PM EST (12/8)
Length of Visible Light 10h 14m
Length of Day
9h 10m
Waning Crescent, 28% of the Moon is Illuminated
Dec 8
Waning Crescent
Dec 13
New
Dec 20
First Quarter
Dec 28
Full
Jan 4
Last Quarter

Hourly Weather History & Observations

Time (EST) Temp. Windchill Dew Point Humidity Pressure Visibility Wind Dir Wind Speed Gust Speed Precip Events Conditions
12:54 AM 41.0 °F 35.8 °F 39.9 °F 96% 30.02 in 10.0 mi West 8.1 mph - 0.01 in Rain Light Rain
1:54 AM 41.0 °F 35.8 °F 39.0 °F 93% 30.01 in 10.0 mi WSW 8.1 mph - 0.00 in   Overcast
2:28 AM 41.0 °F 36.4 °F 39.0 °F 93% 29.99 in 10.0 mi West 6.9 mph - N/A   Overcast
2:54 AM 39.9 °F - 39.0 °F 97% 30.01 in 10.0 mi Calm Calm - N/A   Overcast
3:54 AM 39.9 °F - 39.0 °F 97% 30.00 in 5.0 mi Calm Calm - 0.01 in Rain Light Rain
4:37 AM 39.9 °F - 39.0 °F 97% 29.96 in 1.8 mi Calm Calm - 0.03 in Rain Light Rain
4:54 AM 39.9 °F 37.8 °F 39.0 °F 97% 29.99 in 1.2 mi North 3.5 mph - 0.04 in Rain Light Rain
5:06 AM 39.9 °F - 39.0 °F 97% 29.96 in 2.0 mi Calm Calm - 0.01 in Rain Light Rain
5:26 AM 39.9 °F 37.8 °F 39.0 °F 97% 29.95 in 1.2 mi ENE 3.5 mph - 0.04 in Rain Rain
5:31 AM 39.9 °F 37.8 °F 39.0 °F 97% 29.95 in 0.8 mi ENE 3.5 mph - 0.05 in Rain Rain
5:52 AM 39.2 °F 37.0 °F 39.2 °F 100% 29.96 in 0.5 mi East 3.5 mph - 0.07 in Fog , Rain Light Rain
5:54 AM 39.9 °F 37.8 °F 39.0 °F 97% 29.98 in 0.5 mi East 3.5 mph - 0.07 in Fog , Rain Light Rain
6:00 AM 39.9 °F 36.7 °F 39.0 °F 97% 29.95 in 0.2 mi East 4.6 mph - 0.01 in Fog , Rain Light Rain
6:37 AM 39.9 °F 36.7 °F 39.0 °F 97% 29.95 in 0.2 mi East 4.6 mph - 0.05 in Fog , Rain Light Rain
6:54 AM 39.9 °F 35.8 °F 39.0 °F 97% 29.97 in 0.2 mi East 5.8 mph - 0.07 in Fog , Rain Light Rain
7:06 AM 39.9 °F 35.1 °F 39.0 °F 97% 29.94 in 0.2 mi East 6.9 mph - 0.00 in Fog , Rain Light Rain
7:54 AM 39.9 °F 35.1 °F 39.0 °F 97% 29.96 in 0.2 mi ENE 6.9 mph - 0.03 in Fog , Rain Light Rain
8:54 AM 39.9 °F 34.5 °F 39.0 °F 97% 29.95 in 0.2 mi ENE 8.1 mph - 0.06 in Fog Fog
9:54 AM 41.0 °F 37.1 °F 39.9 °F 96% 29.95 in 0.2 mi NNE 5.8 mph - 0.01 in Fog , Rain Light Rain
10:54 AM 41.0 °F 37.1 °F 39.9 °F 96% 29.92 in 0.2 mi NE 5.8 mph - 0.02 in   Mist
11:54 AM 39.9 °F 37.8 °F 39.9 °F 100% 29.89 in 0.2 mi NNE 3.5 mph - N/A Fog Fog
12:54 PM 39.9 °F 37.8 °F 39.0 °F 97% 29.87 in 0.2 mi NE 3.5 mph - N/A Fog Fog
1:54 PM 41.0 °F 39.0 °F 39.9 °F 96% 29.86 in 0.2 mi East 3.5 mph - N/A Fog Fog
2:54 PM 41.0 °F - 39.9 °F 96% 29.88 in 0.2 mi Calm Calm - N/A Fog Fog
3:03 PM 41.0 °F - 39.9 °F 96% 29.86 in 0.2 mi Calm Calm - N/A Fog Fog
3:15 PM 41.0 °F - 39.9 °F 96% 29.86 in 0.2 mi Calm Calm - N/A Fog Fog
3:54 PM 41.0 °F - 41.0 °F 100% 29.89 in 0.2 mi Calm Calm - N/A Fog Fog
4:18 PM 41.0 °F - 39.9 °F 96% 29.86 in 0.2 mi Calm Calm - N/A Fog Fog
4:49 PM 41.0 °F 38.0 °F 39.2 °F 93% 29.85 in 0.2 mi SE 4.6 mph - N/A Fog Fog
4:54 PM 41.0 °F 38.0 °F 39.9 °F 96% 29.88 in 0.2 mi ESE 4.6 mph - N/A Fog Fog
5:46 PM 41.0 °F 39.0 °F 39.9 °F 96% 29.87 in 0.2 mi SW 3.5 mph - N/A Fog Fog
5:54 PM 41.0 °F 39.0 °F 39.9 °F 96% 29.90 in 0.2 mi WSW 3.5 mph - N/A Fog Fog
6:25 PM 41.0 °F 37.1 °F 39.9 °F 96% 29.88 in 0.2 mi SW 5.8 mph - N/A Fog Fog
6:44 PM 42.1 °F 38.4 °F 41.0 °F 96% 29.88 in 0.2 mi SW 5.8 mph - N/A Fog Fog
6:54 PM 42.1 °F 37.7 °F 41.0 °F 96% 29.91 in 0.2 mi SW 6.9 mph - N/A Fog Fog
7:45 PM 44.1 °F 38.6 °F 43.0 °F 96% 29.89 in 0.5 mi WSW 10.4 mph - N/A   Mist
7:54 PM 44.1 °F 38.6 °F 43.0 °F 96% 29.91 in 0.5 mi WSW 10.4 mph - N/A   Mist
8:52 PM 44.6 °F 38.8 °F 42.8 °F 93% 29.90 in 2.0 mi West 11.5 mph - N/A   Overcast
8:54 PM 44.1 °F 38.6 °F 43.0 °F 96% 29.92 in 2.0 mi WSW 10.4 mph - N/A   Overcast
9:05 PM 44.1 °F 38.1 °F 43.0 °F 96% 29.90 in 4.0 mi WSW 11.5 mph - N/A   Overcast
9:54 PM 44.1 °F 38.6 °F 43.0 °F 96% 29.94 in 5.0 mi WSW 10.4 mph - N/A   Overcast
10:54 PM 44.1 °F 39.5 °F 43.0 °F 96% 29.96 in 4.0 mi WSW 8.1 mph - N/A   Overcast
11:23 PM 44.1 °F 39.5 °F 43.0 °F 96% 29.94 in 1.8 mi WSW 8.1 mph - N/A   Overcast
11:36 PM 44.1 °F 39.0 °F 43.0 °F 96% 29.94 in 0.8 mi WSW 9.2 mph - N/A   Mist
11:54 PM 44.1 °F 38.6 °F 43.0 °F 96% 29.97 in 0.5 mi WSW 10.4 mph - N/A Fog Fog